Terug naar catalogus

STARLINK-36722

ActiefCommunicatieVLEO
NORAD 67917·PAYLOAD·🇺🇸 United States

Gelanceerd Feb 22, 2026 vanaf Vandenberg Space Force Base

Loading…

Volgende Passages (komende 24 uur)

TLE

VersSource: CelesTrak SupGP

Epoch: Sep 14, 2026, 21:25 UTC

1 67917C 26036P   26257.89284722  .00035874  00000+0  13001-2 0  2571
2 67917  43.0004 256.4196 0001166 251.0071  43.4766 15.27542888    17

Volg STARLINK-36722 in realtime met AllMySat

Download on the App Store